Presure
226 222 226 232 234 225 205 225 163 267 283 298 214 145 145 142 130 125 110 112 103 104 122 147 108 95 133 118 118 92 135 132 87 83 128 99 120 127 121 107 94 119 110 113
216 218 123 221 228 230 230 228 234 234 252 269 288 138 130 93 90 140 133 115 125 119 128 133 138 143 134 112 118 94 128 99 86 98 113 97 118 114 91 96 127 131 104 131
155 214 217 220 222 223 224 224 230 242 257 271 268 277 97 93 138 152 121 78 71 75 102 114 132 115 98 123 126 120 143 98 91 97 98 110 109 124 96 99 122 126 123 129
206 207 209 213 214 189 213 219 226 234 256 268 264 276 94 256 97 152 100 135 144 127 116 112 117 81 116 122 106 134 109 113 110 132 113 110 118 131 113 113 121 115 121 127
202 202 201 207 213 207 207 283 226 241 247 532 323 243 263 269 279 98 94 139 145 151 133 106 111 120 94 132 123 119 102 128 137 99 132 135 124 114 132 123 131 129 125 127
194 193 201 203 212 203 252 438 414 440 469 455 459 463 290 255 165 189 97 177 140 140 104 109 123 118 117 115 118 128 127 85 139 112 116 115 132 114 116 125 120 127 123 120
189 192 198 197 218 242 271 285 407 415 417 414 448 431 397 407 251 208 282 138 272 109 83 122 140 138 117 113 108 102 113 104 95 127 133 125 95 128 134 118 129 131 132 128
192 194 203 203 226 270 257 422 399 392 397 399 382 386 407 396 291 256 247 207 274 144 104 137 118 140 144 133 110 112 122 122 119 127 105 123 144 130 140 119 117 132 103 132
191 199 201 218 251 196 125 303 386 384 375 369 367 354 369 393 379 375 99 267 294 111 250 128 141 133 142 139 138 133 132 130 122 97 119 132 122 111 132 128 110 124 119 134
199 200 213 227 248 249 245 264 384 373 364 373 359 353 359 378 370 344 295 263 259 289 237 247 237 158 103 126 146 119 141 129 133 131 117 104 135 106 116 128 125 126 103 131
196 206 212 227 236 253 245 256 284 368 363 368 345 341 352 354 351 267 338 243 213 259 290 245 205 241 237 203 124 123 131 153 111 140 137 134 106 80 129 108 140 138 126 120
198 202 211 224 230 240 230 246 259 293 363 348 343 339 341 337 353 340 329 302 245 259 259 287 247 239 238 190 231 139 145 184 149 146 145 95 102 143 142 117 86 107 123 138
203 206 211 224 225 231 232 240 249 268 290 325 364 338 319 322 340 358 370 369 337 240 250 257 126 249 239 235 235 234 73 137 136 88 127 125 144 148 130 129 102 106 131 142
201 206 210 222 212 224 87 225 234 247 261 293 300 354 371 325 313 319 332 344 345 327 303 246 262 279 250 241 238 237 236 234 195 137 134 106 134 120 125 122 105 93 124 120
202 203 212 216 213 223 225 224 222 237 239 254 289 294 311 354 353 310 313 321 334 280 330 288 248 253 283 251 242 240 240 242 120 233 230 151 133 107 134 135 136 90 140 133
200 205 214 215 213 225 224 224 217 221 233 239 260 270 306 300 314 430 319 87 310 112 108 290 76 230 247 278 258 243 244 250 252 238 233 230 225 226 224 224 220 219 212 212
205 210 214 210 213 223 225 217 216 219 225 228 241 261 283 301 304 321 325 371 338 308 314 309 131 234 225 212 257 223 198 220 248 253 246 238 198 235 235 228 226 227 223 214
211 211 204 209 210 222 229 221 212 212 218 219 231 227 257 273 284 302 329 319 242 317 381 319 74 186 168 137 190 237 244 135 260 246 248 249 250 246 242 188 235 231 232 180
211 204 207 206 207 225 225 225 216 205 224 225 225 228 239 264 263 283 286 311 333 316 316 382 400 341 162 102 242 239 208 119 114 252 252 78 112 260 221 252 223 245 237 232
215 209 214 204 212 226 225 228 217 211 218 222 216 231 246 247 264 263 268 286 303 342 334 317 333 488 104 368 185 82 88 91 100 241 239 242 90 263 264 260 253 250 166 250
206 209 206 206 220 223 222 226 221 206 201 206 219 218 239 246 247 257 271 273 273 293 342 335 334 468 463 460 367 359 356 346 217 239 239 240 239 241 250 261 263 258 258 255
206 208 204 209 216 219 227 226 222 204 214 213 220 239 218 237 239 246 237 266 273 270 305 340 333 444 445 440 434 408 356 350 364 348 318 250 245 239 247 202 237 246 186 262
215 201 208 215 215 215 221 222 217 215 208 209 218 243 225 244 240 226 239 244 249 285 292 319 326 327 424 418 420 413 418 352 337 337 352 213 323 241 240 242 238 239 245 241
218 211 208 209 215 217 216 212 214 216 210 214 231 230 229 240 237 231 246 247 256 275 287 300 322 322 412 400 395 392 388 390 395 349 330 341 347 339 334 331 265 251 243 245
222 219 210 214 214 211 210 201 220 214 210 209 227 226 228 232 240 233 251 256 258 267 292 296 314 314 334 391 379 376 372 365 363 369 369 356 331 329 332 351 332 343 313 305
221 219 216 215 211 206 211 193 214 210 202 202 219 239 224 227 241 235 243 254 261 271 286 299 307 312 308 386 368 362 357 357 359 361 363 366 367 380 363 336 330 329 339 353
Wind_Speed
38 44 46 47 51 59 61 66 60 64 67 69 83 91 89 84 74 67 60 66 51 46 70 80 52 43 65 52 50 39 61 60 34 27 55 41 50 51 52 40 41 44 42 46
39 42 38 50 51 54 57 65 70 74 74 67 68 83 77 55 45 86 78 56 66 75 82 82 81 80 66 49 49 47 57 44 39 42 50 43 52 49 34 40 57 52 42 47
39 43 45 48 49 51 55 62 68 71 71 68 69 71 63 54 87 97 75 36 24 27 54 67 84 60 45 65 65 59 71 55 46 41 43 54 51 60 40 40 53 54 50 51
40 44 46 47 49 52 59 68 73 77 74 72 65 72 56 75 48 96 62 79 85 82 73 65 69 35 59 61 50 71 58 62 63 63 57 57 62 66 56 54 55 49 55 57
40 44 46 47 48 51 63 53 71 71 69 14 71 61 77 84 85 56 58 82 89 93 91 66 65 77 40 85 74 63 50 71 74 53 68 68 67 63 69 61 65 62 58 62
41 46 48 47 48 52 52 26 31 26 19 5 7 4 83 79 70 83 71 92 78 83 69 69 82 80 77 72 71 77 69 36 81 58 63 58 73 62 60 66 56 62 58 60
43 46 49 47 46 45 51 17 26 21 13 7 6 10 35 29 84 73 93 89 112 76 46 73 94 93 80 76 65 43 68 58 51 76 81 73 49 70 77 62 69 71 72 65
47 47 48 45 46 54 45 28 24 16 16 9 4 2 15 27 66 88 87 88 111 91 70 90 70 96 96 96 60 70 82 77 68 84 58 71 87 74 79 61 58 74 51 73
48 48 47 50 53 33 24 48 29 14 11 7 7 13 8 27 37 56 47 91 95 72 120 84 93 91 98 99 104 103 101 99 69 46 80 84 68 61 80 74 58 71 67 80
48 47 47 47 49 46 37 46 31 23 14 3 11 11 18 24 29 44 66 95 101 104 116 126 126 95 61 83 103 75 108 95 102 96 61 59 91 47 68 77 75 75 52 83
47 45 48 46 44 48 39 43 45 31 21 5 7 9 16 32 40 40 59 91 72 100 105 120 114 127 125 116 82 79 87 115 63 111 107 88 55 32 86 53 90 90 79 72
46 43 44 45 45 44 26 39 41 42 27 20 6 11 14 22 39 54 66 83 90 97 99 105 121 123 124 113 123 102 105 116 110 109 110 56 58 108 105 56 29 62 72 94
44 41 41 42 42 42 38 36 37 36 37 34 12 6 17 20 24 29 31 35 68 88 94 101 45 124 126 127 127 126 30 101 101 47 91 85 109 116 83 80 59 60 78 97
44 39 39 38 36 38 28 30 30 34 31 35 33 20 6 23 24 28 31 38 45 61 92 100 107 115 128 128 129 129 129 129 119 102 102 66 101 80 88 71 63 51 80 71
41 39 38 37 36 39 38 32 22 33 28 28 34 29 24 15 21 32 34 38 46 44 61 94 103 105 114 126 127 127 129 130 69 129 129 89 103 65 104 102 106 44 105 98
38 40 37 35 35 36 36 35 26 21 28 30 31 28 32 25 17 18 37 44 45 40 25 74 22 95 107 114 126 125 126 126 130 131 130 130 128 127 127 126 124 121 123 122
37 37 35 34 34 34 34 33 29 26 26 25 32 29 30 31 28 26 19 16 46 55 57 63 46 100 101 92 113 96 93 110 125 127 132 130 99 128 130 130 129 128 126 125
34 35 32 34 35 34 32 33 29 23 24 20 29 20 27 26 26 28 23 24 26 24 48 70 24 53 69 54 86 107 112 49 126 127 127 128 131 132 132 97 132 131 130 98
31 33 32 33 34 35 32 32 31 22 32 31 27 27 32 29 26 27 25 29 25 29 36 37 51 77 47 42 106 110 93 49 43 120 123 26 37 131 110 132 114 134 132 131
28 34 30 31 33 33 31 30 32 32 32 32 27 34 34 33 32 31 30 32 34 34 28 36 39 37 40 63 57 32 40 44 42 116 118 122 38 123 125 132 130 129 82 133
30 32 30 32 31 31 31 29 31 32 26 25 33 33 36 35 36 35 39 37 35 41 43 33 32 33 36 40 72 72 77 86 91 117 119 118 119 120 122 124 124 127 129 133
30 31 33 32 28 32 30 28 31 33 36 36 37 36 34 39 38 40 37 43 44 44 45 45 36 34 33 34 38 57 77 78 79 94 104 123 123 120 122 97 118 121 89 125
35 32 36 31 28 32 28 29 31 33 36 36 35 38 40 40 42 39 47 44 43 48 47 50 44 38 34 33 32 37 40 84 81 84 85 61 105 121 119 118 118 120 121 120
35 31 35 31 30 32 29 29 33 33 37 39 41 41 42 43 44 46 49 50 51 52 52 52 51 45 33 33 30 31 36 40 45 89 88 88 89 99 105 110 123 125 122 124
34 35 35 33 32 30 31 30 32 33 38 40 42 43 44 45 46 49 51 53 55 56 60 56 56 50 44 32 31 28 32 38 44 49 65 84 96 94 93 95 101 110 115 118
32 36 33 32 32 31 32 33 32 36 39 41 44 45 46 48 49 51 52 54 56 61 65 62 59 54 50 29 32 32 31 34 38 41 45 49 59 59 83 100 96 100 99 103
Wind_Direction
239 241 243 245 247 248 248 247 245 253 249 246 238 236 238 240 227 237 231 235 220 256 253 241 241 240 237 241 242 258 234 231 260 245 242 259 250 253 254 247 260 254 265 272
238 242 247 247 249 250 252 252 252 249 249 247 245 238 239 234 243 236 234 230 234 244 243 242 248 245 241 235 244 246 242 242 260 256 246 261 251 253 243 253 260 260 266 258
251 246 251 253 255 258 259 260 261 258 257 249 244 242 236 237 237 235 235 245 231 245 245 246 246 244 226 242 244 241 241 241 252 258 252 252 252 250 254 257 263 266 267 261
250 252 256 259 260 259 264 263 260 260 261 257 246 237 238 233 233 237 230 234 232 231 238 239 229 266 245 242 236 247 243 242 241 242 248 255 253 251 257 261 263 265 265 267
259 261 261 264 266 264 264 295 264 265 262 301 244 236 234 234 231 242 252 238 235 233 232 255 247 247 251 251 252 245 249 252 248 246 245 241 249 260 254 260 258 261 263 265
261 262 268 268 273 267 295 329 320 344 8 18 321 233 230 229 238 225 241 231 236 234 254 248 240 243 248 252 253 254 242 251 249 251 250 254 248 260 259 262 273 267 268 261
262 266 272 269 277 296 323 301 333 15 6 18 54 147 227 215 228 224 222 236 222 243 242 245 237 236 247 254 258 257 251 249 254 254 254 251 260 254 254 265 263 260 261 267
265 270 279 277 293 321 325 360 356 15 32 33 94 146 206 213 225 224 225 226 222 237 246 233 237 239 236 240 248 259 256 252 254 256 238 255 251 257 255 253 261 264 258 266
271 279 282 291 314 313 259 348 7 8 32 54 156 200 199 209 220 230 242 223 222 242 224 241 228 234 238 238 240 244 247 254 254 254 257 255 251 249 258 260 254 265 259 263
277 281 289 303 316 324 339 347 20 11 2 127 178 206 219 156 173 197 216 221 218 220 222 225 230 243 250 242 239 246 242 245 253 259 258 238 257 249 254 258 259 260 256 264
279 288 296 308 314 328 342 353 357 20 10 9 234 213 185 181 189 211 219 222 225 220 223 224 230 231 233 236 241 243 247 242 262 248 257 261 237 236 257 255 259 260 261 262
279 285 296 309 316 327 336 350 356 7 25 12 331 258 213 218 196 210 220 225 224 223 222 224 227 231 232 236 234 241 241 240 243 246 249 240 241 259 261 262 253 263 260 262
281 289 298 310 315 323 330 342 354 3 12 17 4 239 281 267 234 217 206 212 228 227 224 224 246 229 233 234 234 235 225 247 248 249 258 261 254 257 254 268 262 257 262 261
280 289 297 307 307 320 215 335 351 354 4 10 16 16 327 241 261 255 249 224 219 224 228 227 228 225 230 234 235 236 236 237 242 248 252 256 256 254 258 260 263 262 259 264
281 286 299 305 308 317 319 328 338 348 355 2 4 8 14 17 254 252 252 247 238 236 230 229 232 231 231 233 236 238 239 240 245 239 240 248 253 250 257 259 261 267 264 262
279 287 297 301 305 313 315 323 327 339 345 349 352 351 4 354 353 299 248 227 254 239 244 238 241 236 237 234 236 239 241 240 241 242 242 242 244 246 246 246 246 246 249 250
278 285 291 295 301 309 309 313 317 329 336 340 342 348 1 9 354 342 321 312 247 251 246 245 239 234 237 241 240 237 242 245 245 244 244 245 248 248 249 249 249 247 246 247
277 279 284 292 297 306 304 304 305 312 322 325 334 331 335 351 359 0 346 315 267 283 256 246 235 245 239 244 242 241 242 244 244 248 248 248 249 249 249 250 251 252 251 249
272 272 281 287 293 303 300 298 301 287 315 321 326 329 327 334 330 349 342 350 323 295 286 274 260 242 244 252 241 241 242 260 233 243 246 212 238 250 250 251 252 252 253 253
271 273 279 282 294 300 296 295 296 300 310 317 317 322 322 321 331 322 323 336 339 337 300 282 281 285 247 247 247 245 262 271 261 244 246 248 264 248 248 249 251 252 252 255
268 275 278 282 298 295 291 289 292 294 290 302 314 316 315 316 315 326 334 328 326 331 336 312 297 293 282 273 250 245 239 239 247 247 248 249 250 252 251 251 250 251 252 253
264 273 275 284 293 290 292 286 289 292 300 305 308 309 310 313 316 319 312 329 330 323 331 335 317 303 292 281 270 253 245 244 244 239 241 249 250 252 252 254 255 255 255 255
267 262 274 282 287 284 289 282 287 291 296 302 304 312 310 318 318 315 315 317 316 332 332 337 330 324 299 291 280 269 264 244 244 243 244 245 245 254 256 256 256 258 257 258
268 265 270 275 283 282 281 283 288 291 297 303 309 310 312 318 314 314 317 317 320 330 335 337 336 331 302 296 287 272 265 262 258 245 247 248 246 244 244 244 254 256 258 258
272 270 267 274 277 278 277 283 289 292 295 301 309 310 311 313 315 312 322 323 323 327 337 337 338 334 329 298 292 280 265 260 258 258 251 250 249 251 249 250 248 244 250 250
268 270 268 272 269 274 278 278 287 290 292 298 305 311 308 310 316 313 317 324 327 332 336 337 337 335 333 297 292 286 276 269 267 266 265 264 260 262 256 251 254 251 251 250